Flag for Senegal Weather past 2 weeks in Dakar, Senegal

Now
81 °F

Passing clouds.


Feels Like: 86 °F
Forecast: 80 / 86 °F
Wind: 7 mph from Northwest

Location: Dakar / Yoff

Current Time: Sep 3, 2014 at 6:14:33 AM

Latest Report: Sep 3, 2014 at 6:00 AM


Visibility: N/A

Pressure: 29.83 "Hg

Humidity: 84%

Dew point: 75 °F

Location of DakarLocation

Historic Weather in Dakar — Graph

°F

Dakar temperature yesterday

Maximum temperature yesterday: 86 °F (at 11:30 AM)
Minimum temperature yesterday: 79 °F (at 6:30 AM)
Average temperature yesterday: 82 °F

Past Weeks' High & Low Weather Summary

 TemperatureHumidityPressure
High90 °F (Aug 22, 3:30 PM)100% (Aug 27, 7:00 PM)30.04 "Hg (Aug 27, 7:00 PM)
Low72 °F (Aug 27, 6:55 PM)63% (Aug 22, 3:30 PM)29.80 "Hg (Aug 22, 4:30 PM)
Average82 °F81%29.90 "Hg
* Reported Aug 19 5:00 AM — Sep 3 5:00 AM, Dakar, Weather by CustomWeather, © 2014

Note: Actual official high and low records may vary slightly from our data, if they occured in-between our weather recording intervals... More about our weather records

Advertising

Dakar weather history for previous 24 hours

 ConditionsComfort  
Time TempWeatherWind HumidityBarometerVisibility
5:00 AM
Sep 3
81 °FPassing clouds.7 mph84%29.83 "HgN/A
4:30 AM81 °FPassing clouds.7 mph84%29.83 "HgN/A
4:00 AM81 °FPassing clouds.8 mph84%29.83 "HgN/A
3:30 AM81 °FPassing clouds.7 mph84%29.86 "HgN/A
3:00 AM81 °FPassing clouds.6 mph84%29.86 "HgN/A
2:30 AM81 °FPassing clouds.6 mph84%29.86 "HgN/A
2:00 AM81 °FPassing clouds.6 mph84%29.89 "HgN/A
1:30 AM81 °FPassing clouds.5 mph89%29.89 "HgN/A
1:00 AM81 °FPassing clouds.5 mph84%29.89 "HgN/A
12:30 AM81 °FPassing clouds.5 mph89%29.89 "HgN/A
12:00 AM81 °FPassing clouds.5 mph89%29.89 "HgN/A
11:30 PM
Sep 2
81 °FPassing clouds.5 mph84%29.89 "HgN/A
11:00 PM82 °FPassing clouds.6 mph84%29.89 "HgN/A
10:30 PM81 °FPassing clouds.7 mph84%29.89 "HgN/A
10:00 PM81 °FPassing clouds.6 mph84%29.89 "HgN/A
9:30 PM81 °FPassing clouds.6 mph84%29.89 "HgN/A
9:00 PM82 °FPassing clouds.5 mph79%29.89 "HgN/A
8:30 PM82 °FPassing clouds.5 mph79%29.89 "HgN/A
8:00 PM82 °FPassing clouds.5 mph79%29.86 "HgN/A
7:30 PM82 °FPassing clouds.6 mph74%29.86 "HgN/A
7:00 PM82 °FScattered clouds.7 mph79%29.86 "HgN/A
6:30 PM84 °FScattered clouds.8 mph74%29.86 "HgN/A
6:00 PM84 °FScattered clouds.7 mph74%29.86 "HgN/A
5:30 PM84 °FScattered clouds.8 mph74%29.83 "HgN/A
5:00 PM84 °FScattered clouds.8 mph74%29.86 "HgN/A
4:30 PM84 °FScattered clouds.8 mph74%29.86 "HgN/A
4:00 PM84 °FScattered clouds.8 mph74%29.86 "HgN/A
3:30 PM86 °FScattered clouds.8 mph70%29.86 "HgN/A
3:00 PM86 °FScattered clouds.7 mph75%29.86 "HgN/A
2:30 PM86 °FScattered clouds.7 mph75%29.86 "HgN/A
2:00 PM86 °FScattered clouds.9 mph75%29.89 "HgN/A
1:30 PM86 °FScattered clouds.8 mph75%29.89 "HgN/A
1:00 PM86 °FScattered clouds.8 mph75%29.89 "HgN/A
12:30 PM86 °FPassing clouds.7 mph75%29.89 "HgN/A
12:00 PM84 °FPassing clouds.8 mph74%29.92 "HgN/A
11:30 AM86 °FPassing clouds.7 mph75%29.92 "HgN/A
11:00 AM84 °FPassing clouds.7 mph74%29.92 "HgN/A
10:30 AM84 °FScattered clouds.7 mph74%29.92 "HgN/A
10:00 AM84 °FScattered clouds.6 mph74%29.92 "HgN/A
9:30 AM82 °FScattered clouds.3 mph79%29.92 "HgN/A
9:00 AM82 °FScattered clouds.5 mph79%29.92 "HgN/A
8:30 AM82 °FBroken clouds.3 mph79%29.89 "HgN/A
8:00 AM81 °FPartly sunny.2 mph84%29.89 "HgN/A
7:30 AM79 °FPartly sunny.3 mph84%29.86 "HgN/A
7:00 AM79 °FBroken clouds.5 mph84%29.86 "HgN/A
6:30 AM79 °FPartly cloudy.5 mph84%29.86 "HgN/A
6:00 AM81 °FPassing clouds.5 mph84%29.86 "HgN/A
Weather by CustomWeather, © 2014

See weather overviewHow to use our weather pages